Flag for U.S.A. Weather past 2 weeks in Palestine, Texas, U.S.A.

Now
77 °F

Scattered clouds.


Feels Like: 78 °F
Forecast: 65 / 89 °F
Wind: 5 mph from South

Location: Palestine Municipal Airport

Current Time: Apr 26, 2015 at 10:44:57 AM

Latest Report: Apr 26, 2015 at 10:15 AM


Visibility: 10 mi

Pressure: 29.77 "Hg

Humidity: 84%

Dew point: 72 °F

Location of PalestineLocation

Historic Weather in Palestine — Graph

°F

Palestine temperature yesterday

Maximum temperature yesterday: 89 °F (at 3:35 PM)
Minimum temperature yesterday: 64 °F (at 11:15 PM)
Average temperature yesterday: 76 °F

Past Weeks' High & Low Weather Summary

 TemperatureHumidityPressure
High89 °F (Apr 25, 3:35 PM)100% (Apr 14, 5:35 AM)30.16 "Hg (Apr 14, 5:35 AM)
Low47 °F (Apr 20, 6:55 AM)27% (Apr 25, 4:15 PM)29.68 "Hg (Apr 24, 7:15 PM)
Average69 °F79%29.92 "Hg
* Reported Apr 11 9:15 AM — Apr 26 9:35 AM, Palestine, Weather by CustomWeather, © 2015

Note: Actual official high and low records may vary slightly from our data, if they occured in-between our weather recording intervals... More about our weather records

Advertising

Palestine weather history for previous 24 hours

 ConditionsComfort  
Time TempWeatherWind HumidityBarometerVisibility
9:35 AM
Sun, Apr 26
73 °FScattered clouds.7 mph89%29.77 "Hg7 mi
9:15 AM73 °FPartly sunny.9 mph91%29.77 "Hg7 mi
8:55 AM71 °FLow clouds.6 mph92%29.77 "Hg7 mi
8:35 AM70 °FLow clouds.7 mph94%29.77 "Hg7 mi
8:15 AM69 °FLow clouds.7 mph94%29.76 "Hg7 mi
7:55 AM68 °FLow clouds.7 mph94%29.76 "Hg7 mi
7:35 AM68 °FFog.9 mph95%29.75 "Hg5 mi
7:15 AM68 °FFog.6 mph95%29.74 "Hg4 mi
6:55 AM67 °FFog.6 mph95%29.73 "Hg4 mi
6:35 AM68 °FFog.8 mph97%29.72 "Hg1 mi
6:15 AM68 °FFog.7 mph99%29.71 "Hg1 mi
5:55 AM67 °FFog.3 mph97%29.70 "Hg1 mi
5:35 AM68 °FFog.3 mph97%29.70 "Hg3 mi
5:15 AM67 °FFog.3 mph96%29.70 "Hg4 mi
4:55 AM67 °FFog.5 mph94%29.70 "Hg3 mi
4:35 AM66 °FFog.3 mph91%29.70 "Hg4 mi
4:15 AM66 °FFog.3 mph93%29.70 "Hg5 mi
3:55 AM66 °FClear.No wind92%29.70 "Hg7 mi
3:35 AM67 °FClear.3 mph95%29.70 "Hg7 mi
3:15 AM67 °FClear.3 mph92%29.71 "Hg7 mi
2:55 AM66 °FClear.3 mph88%29.71 "Hg7 mi
2:35 AM65 °FClear.No wind87%29.72 "Hg10 mi
2:15 AM65 °FClear.No wind89%29.72 "Hg10 mi
1:55 AM65 °FClear.3 mph92%29.73 "Hg10 mi
1:35 AM65 °FClear.5 mph95%29.73 "Hg7 mi
1:15 AM64 °FClear.3 mph93%29.73 "Hg10 mi
12:55 AM65 °FClear.No wind93%29.74 "Hg10 mi
12:35 AM64 °FClear.3 mph93%29.73 "Hg10 mi
12:15 AM64 °FClear.No wind93%29.73 "Hg10 mi
11:55 PM
Sat, Apr 25
64 °FClear.3 mph92%29.72 "Hg10 mi
11:35 PM64 °FClear.3 mph94%29.72 "Hg10 mi
11:15 PM64 °FClear.3 mph94%29.72 "Hg7 mi
10:15 PM65 °FClear.No wind93%29.71 "Hg7 mi
9:55 PM66 °FClear.No wind91%29.71 "Hg10 mi
9:35 PM67 °FClear.No wind89%29.70 "Hg10 mi
9:15 PM68 °FClear.No wind87%29.70 "Hg10 mi
8:55 PM70 °FSunny.No wind80%29.70 "Hg10 mi
8:35 PM72 °FSunny.No wind72%29.69 "Hg10 mi
8:15 PM75 °FSunny.No wind59%29.69 "Hg10 mi
7:55 PM81 °FSunny.No wind57%29.69 "Hg10 mi
7:35 PM83 °FSunny.No wind43%29.68 "Hg10 mi
7:15 PM85 °FSunny.5 mph41%29.68 "Hg10 mi
6:55 PM87 °FSunny.3 mph37%29.68 "Hg10 mi
6:35 PM88 °FSunny.5 mph35%29.68 "Hg10 mi
6:15 PM89 °FSunny.6 mph32%29.68 "Hg10 mi
5:55 PM89 °FSunny.5 mph32%29.68 "Hg10 mi
5:35 PM89 °FSunny.6 mph31%29.68 "Hg10 mi
5:15 PM89 °FSunny.9 mph30%29.68 "Hg10 mi
4:15 PM89 °FSunny.12 mph27%29.69 "Hg10 mi
3:55 PM89 °FSunny.14 mph28%29.70 "Hg10 mi
3:35 PM89 °FSunny.9 mph34%29.70 "Hg10 mi
3:15 PM89 °FSunny.8 mph35%29.70 "Hg10 mi
2:55 PM88 °FSunny.10 mph35%29.71 "Hg10 mi
2:35 PM88 °FSunny.10 mph37%29.71 "Hg10 mi
2:15 PM87 °FSunny.9 mph43%29.72 "Hg10 mi
1:55 PM87 °FSunny.12 mph46%29.71 "Hg10 mi
1:35 PM86 °FSunny.10 mph47%29.72 "Hg10 mi
1:15 PM86 °FSunny.10 mph53%29.73 "Hg10 mi
12:55 PM85 °FSunny.10 mph55%29.73 "Hg10 mi
12:35 PM84 °FSunny.10 mph57%29.74 "Hg10 mi
12:15 PM84 °FSunny.13 mph62%29.75 "Hg10 mi
11:55 AM82 °FSunny.12 mph73%29.75 "Hg10 mi
11:35 AM82 °FScattered clouds.7 mph85%29.76 "Hg10 mi
11:15 AM81 °FBroken clouds.8 mph88%29.76 "Hg7 mi
10:55 AM79 °FFog.10 mph91%29.76 "Hg5 mi
10:35 AM77 °FFog.6 mph94%29.76 "Hg5 mi
10:15 AM77 °FFog.6 mph95%29.77 "Hg5 mi
Weather by CustomWeather, © 2015

See weather overviewHow to use our weather pages